[[{"header":{"parameterUnit":"m.s-1","parameterCategory":1,"la1":30.2992,"la2":30.254,"lo1":-89.0895,"lo2":-89.0443,"dy":0.0025,"dx":0.0025,"nx":19,"ny":19,"refTime":"2026-05-05T03:00:00:Z","depth":0,"parameterNumber":2,"parameterNumberName":"U-component_of_WINDS"},"data":[0,0,0,0.7821,0.7821,0.7783,0.7783,0.7749,0.7749,0,0,0,0,0,0,0,0,0,0,0,0.7843,0.7843,0.7821,0.7821,0.7783,0.7783,0.7749,0.7749,0,0,0,0,0,0,0,0,0,0,0,0.7843,0.7843,0.7843,0.7821,0.7783,0.7783,0.7749,0.7772,0,0,0,0,0,0,0,0,0,0,0.7806,0.7836,0.7843,0.7843,0.7821,0.7783,0.7783,0.7773,0.7771,0.7773,0,0.7778,0,0.7763,0.7748,0.7748,0,0,0,0.7813,0.7838,0.7819,0.7843,0.782,0.7783,0.7798,0.7772,0.7769,0.777,0.7777,0.7776,0.7763,0.7748,0.7747,0.7785,0.7786,0,0,0.7815,0.7841,0.7821,0.7818,0.7826,0.7799,0.7797,0.777,0.778,0.7777,0.7775,0.7762,0.7747,0.7747,0.7785,0.7786,0,0,0,0.7826,0.7843,0.7824,0.7819,0.7812,0.7798,0.7796,0.7781,0.7772,0.7774,0.7762,0.7747,0.7747,0.7784,0.7785,0.7836,0,0,0,0.7827,0.7849,0.7825,0.7841,0.7812,0.7796,0.7808,0.7774,0.777,0.7762,0.7747,0.7747,0.7784,0.7785,0.7834,0.7856,0,0,0,0.7842,0.7851,0.7849,0.7842,0.7827,0.7796,0.7786,0.7773,0.7763,0.7748,0.7747,0.7783,0.7785,0.7831,0.7852,0.7873,0,0,0,0.7864,0.7896,0.785,0.788,0.7828,0.7828,0.7786,0.7785,0.7778,0.7747,0.7784,0.7785,0.7831,0.785,0.787,0.7894,0.7907,0,0,0.7918,0.7903,0.7918,0.7877,0.7892,0.7832,0.7854,0.7823,0.7798,0.7791,0.7791,0.7835,0.7852,0.7872,0.7971,0.7981,0,0,0,0.7944,0.7955,0.7954,0.7949,0.7926,0.7907,0.787,0.7858,0.785,0.78,0.7847,0.7857,0.7868,0.7878,0.7886,0.7893,0.7791,0.7791,0.7791,0.8057,0.8023,0.8046,0.8007,0.8002,0.7962,0.7955,0.7931,0.7899,0.791,0.7908,0.7972,0.7985,0.7991,0.7999,0.7918,0.7919,0.7919,0.7919,0.8132,0.8142,0.8097,0.8103,0.8066,0.807,0.8032,0.8009,0.8006,0.7971,0.7979,0.7943,0.8004,0.8008,0.7922,0.7922,0.7921,0.7921,0.7921,0.8201,0.82,0.8185,0.8173,0.8167,0.8126,0.8125,0.8091,0.806,0.8067,0.806,0.8059,0.8053,0.8066,0.8067,0.8067,0.8067,0.8067,0.8067,0.8278,0.826,0.8264,0.8242,0.8233,0.8217,0.8177,0.8167,0.8147,0.8122,0.8122,0.8087,0.8016,0.7999,0.8071,0.807,0.807,0.8069,0.8069,0.8365,0.834,0.8347,0.8338,0.8308,0.8303,0.826,0.8242,0.8229,0.8229,0.8192,0.8146,0.8128,0.8121,0.8106,0.8201,0.8201,0.8201,0.8201,0.8423,0.841,0.8409,0.8397,0.8381,0.8343,0.8349,0.8317,0.828,0.8269,0.8251,0.8228,0.8223,0.8208,0.8199,0.8184,0.8297,0.8297,0.8297,0.8473,0.8458,0.8471,0.8435,0.8409,0.8387,0.8391,0.8377,0.833,0.83,0.826,0.8256,0.8219,0.8209,0.8179,0.8165,0.8138,0,0]},{"header":{"parameterUnit":"m.s-1","parameterCategory":1,"la1":30.2992,"la2":30.254,"lo1":-89.0895,"lo2":-89.0443,"dy":0.0025,"dx":0.0025,"nx":19,"ny":19,"refTime":"2026-05-05T03:00:00:Z","depth":0,"parameterNumber":3,"parameterNumberName":"V-component_of_WINDS"},"data":[0,0,0,8.2883,8.2887,8.306,8.3061,8.3287,8.3289,0,0,0,0,0,0,0,0,0,0,0,8.2839,8.2841,8.2882,8.2887,8.306,8.3061,8.3286,8.3289,0,0,0,0,0,0,0,0,0,0,0,8.2838,8.284,8.2843,8.2888,8.306,8.3061,8.3286,8.3152,0,0,0,0,0,0,0,0,0,0,8.2983,8.2951,8.284,8.2843,8.2889,8.306,8.3061,8.3146,8.3161,8.3212,0,8.3264,0,8.3281,8.3305,8.3306,0,0,0,8.288,8.2939,8.2979,8.2843,8.289,8.3059,8.298,8.3154,8.3171,8.3232,8.3267,8.3275,8.3284,8.3306,8.3307,8.364,8.3641,0,0,8.287,8.2873,8.2968,8.2991,8.297,8.2974,8.2985,8.3164,8.3201,8.3268,8.328,8.3288,8.3308,8.331,8.3638,8.364,0,0,0,8.2847,8.2867,8.2902,8.2982,8.3013,8.2979,8.2992,8.3193,8.3204,8.3283,8.3291,8.3309,8.3312,8.3636,8.3639,8.3738,0,0,0,8.2841,8.2854,8.2899,8.2902,8.301,8.3106,8.3017,8.3192,8.3212,8.329,8.3309,8.3314,8.3634,8.3637,8.3731,8.3783,0,0,0,8.2825,8.2852,8.288,8.2902,8.2977,8.3103,8.3125,8.3196,8.3218,8.3306,8.3315,8.3632,8.3637,8.3724,8.3773,8.3873,0,0,0,8.2807,8.2963,8.2882,8.3058,8.2976,8.3165,8.3124,8.3263,8.335,8.331,8.3634,8.3638,8.3722,8.3766,8.3866,8.3958,8.3997,0,0,8.3005,8.2987,8.3091,8.3023,8.3228,8.3138,8.3356,8.343,8.3432,8.3569,8.3577,8.3733,8.3772,8.3871,8.4213,8.4244,0,0,0,8.3154,8.3229,8.3282,8.3369,8.3433,8.349,8.3532,8.3559,8.3676,8.3505,8.3796,8.3819,8.3877,8.392,8.3947,8.3996,8.3659,8.3658,8.3658,8.3438,8.3438,8.3609,8.3629,8.3713,8.3755,8.3821,8.3865,8.3835,8.3904,8.3945,8.4153,8.4205,8.4224,8.4276,8.3993,8.3993,8.3994,8.3994,8.3729,8.3835,8.3796,8.3949,8.3945,8.4071,8.4117,8.4092,8.4207,8.4122,8.4173,8.4081,8.4259,8.4303,8.4001,8.4,8.3999,8.3998,8.3998,8.3916,8.3966,8.4,8.4126,8.4221,8.4233,8.4346,8.4337,8.4329,8.4379,8.4421,8.4419,8.4417,8.44,8.4401,8.4401,8.4402,8.4403,8.4403,8.4096,8.4131,8.4231,8.4313,8.4367,8.4437,8.4481,8.4532,8.4586,8.457,8.4571,8.4535,8.4277,8.4213,8.4414,8.4412,8.4411,8.441,8.4409,8.4392,8.4325,8.4478,8.4533,8.4628,8.4723,8.4711,8.4817,8.4857,8.4913,8.4866,8.4677,8.4656,8.4635,8.4582,8.4867,8.4867,8.4867,8.4867,8.455,8.454,8.4696,8.4784,8.4869,8.4874,8.5043,8.5078,8.5102,8.5126,8.5083,8.5012,8.499,8.4982,8.4953,8.4903,8.5264,8.5264,8.5264,8.4732,8.473,8.4879,8.4907,8.498,8.5042,8.5201,8.53,8.5312,8.528,8.5145,8.5128,8.5012,8.4975,8.494,8.4896,8.4804,0,0]}]]